[[{"header":{"parameterUnit":"m.s-1","parameterCategory":1,"la1":30.2991,"la2":30.254,"lo1":-89.0895,"lo2":-89.0444,"dy":0.0017,"dx":0.0017,"nx":28,"ny":28,"refTime":"2024-05-28T21:00:00:Z","depth":0,"parameterNumber":2,"parameterNumberName":"U-component_of_WINDS"},"data":[0,0,0,0,0,0,0,0,0,0,0,0,0,0,0,0,0,0,0,0,0,0,0,0,0,0,0,0,0,0,0,0,0,0,0,0,0,0,0,0,0,0,0,0,0,0,0,0,0,0,0,0,0,0,0,0,0,0,-1.3968,-1.3967,0,-1.3914,-1.3913,-1.3913,-1.389,-1.389,-1.389,-1.389,-1.3834,-1.3832,-1.3831,0,0,0,0,0,0,0,0,0,0,0,0,0,-1.4052,-1.4051,-1.3968,-1.3967,-1.3967,-1.3914,-1.3913,-1.3912,-1.389,-1.389,-1.389,-1.389,-1.3834,-1.3832,-1.383,0,0,0,0,0,0,0,0,0,0,0,0,0,-1.4009,-1.405,-1.3968,-1.3949,-1.3947,-1.3914,-1.3913,-1.3912,-1.389,-1.389,-1.389,-1.389,-1.3835,-1.3833,-1.383,-1.3812,0,0,-1.3823,-1.3822,0,0,0,0,0,0,0,0,-1.4011,-1.4006,-1.3953,-1.395,-1.3948,-1.3909,-1.3922,-1.3879,-1.389,-1.3911,-1.389,-1.389,-1.3859,-1.3854,-1.3844,-1.381,-1.3807,-1.3823,-1.3821,-1.382,-1.382,0,0,0,0,0,0,0,-1.4014,-1.4008,-1.3947,-1.3952,-1.3949,-1.3943,-1.3937,-1.3914,-1.3885,-1.3909,-1.3908,-1.3902,-1.3857,-1.3846,-1.3842,-1.3806,-1.3823,-1.3821,-1.3819,-1.3818,-1.3756,-1.3756,0,0,0,0,0,0,-1.402,-1.401,-1.3948,-1.3945,-1.3981,-1.3942,-1.3935,-1.3921,-1.3885,-1.388,-1.3902,-1.3901,-1.385,-1.3845,-1.384,-1.3817,-1.382,-1.3818,-1.3817,-1.3756,-1.3756,-1.3756,0,0,0,0,0,0,-1.4022,-1.4015,-1.395,-1.3977,-1.3969,-1.394,-1.3925,-1.392,-1.3909,-1.3879,-1.3874,-1.3895,-1.385,-1.3843,-1.382,-1.3815,-1.3817,-1.3815,-1.3757,-1.3756,-1.3756,-1.3771,0,0,0,0,0,0,-1.4025,-1.4016,-1.4009,-1.3977,-1.3967,-1.3931,-1.3924,-1.3919,-1.3905,-1.3903,-1.3872,-1.3867,-1.385,-1.3823,-1.3817,-1.3812,-1.3813,-1.3757,-1.3756,-1.3756,-1.3771,-1.3771,-1.3771,0,0,0,0,0,-1.4028,-1.4015,-1.4008,-1.4001,-1.3958,-1.3931,-1.3925,-1.3906,-1.3904,-1.3897,-1.3878,-1.3868,-1.3817,-1.3821,-1.3814,-1.3808,-1.3757,-1.3757,-1.3756,-1.377,-1.3771,-1.3771,0,0,0,0,0,0,-1.4046,-1.401,-1.4003,-1.3979,-1.3958,-1.3927,-1.3917,-1.3907,-1.3886,-1.3885,-1.3862,-1.3855,-1.3833,-1.3818,-1.3824,-1.3789,-1.3786,-1.3784,-1.3799,-1.38,-1.38,-1.3804,-1.3811,0,0,0,0,0,-1.4047,-1.4028,-1.3998,-1.398,-1.397,-1.3945,-1.3933,-1.392,-1.3897,-1.3888,-1.3867,-1.3846,-1.3825,-1.3812,-1.3791,-1.3769,-1.3762,-1.3761,-1.3761,-1.3762,-1.376,-1.3748,-1.3748,-1.3754,-1.3754,-1.3754,0,0,-1.4049,-1.4027,-1.4017,-1.3983,-1.3965,-1.3946,-1.3938,-1.3918,-1.3904,-1.3885,-1.3861,-1.3846,-1.382,-1.3797,-1.3786,-1.3784,-1.3757,-1.3761,-1.3762,-1.376,-1.3748,-1.3747,-1.3747,-1.3754,-1.3754,-1.3754,0,0,-1.4043,-1.4025,-1.4008,-1.3991,-1.3964,-1.3948,-1.3944,-1.3915,-1.3904,-1.388,-1.3866,-1.3849,-1.3813,-1.3796,-1.3782,-1.3772,-1.3761,-1.3765,-1.3767,-1.3756,-1.3755,-1.3755,-1.3751,-1.375,-1.3764,-1.3764,-1.3764,0,-1.4049,-1.402,-1.4001,-1.3982,-1.3968,-1.3951,-1.3934,-1.3918,-1.3886,-1.3876,-1.3875,-1.383,-1.3812,-1.3785,-1.3783,-1.3772,-1.3767,-1.3768,-1.3757,-1.3756,-1.3755,-1.3751,-1.375,-1.3765,-1.3765,-1.3765,-1.3765,0,-1.4029,-1.4009,-1.3999,-1.3969,-1.3953,-1.3935,-1.3914,-1.3901,-1.389,-1.3874,-1.385,-1.3828,-1.3802,-1.3795,-1.3784,-1.3767,-1.3767,-1.3761,-1.3758,-1.3756,-1.3752,-1.375,-1.3766,-1.3765,-1.3765,-1.3765,0,0,-1.4031,-1.3992,-1.3988,-1.3975,-1.3945,-1.3929,-1.3911,-1.3887,-1.3876,-1.3855,-1.384,-1.3811,-1.3806,-1.379,-1.3777,-1.3767,-1.3761,-1.3763,-1.3762,-1.3763,-1.3742,-1.3746,-1.3744,-1.3754,-1.3754,-1.3754,-1.3744,0,-1.4021,-1.3988,-1.397,-1.3944,-1.3926,-1.391,-1.3895,-1.3875,-1.386,-1.3843,-1.3827,-1.3806,-1.3801,-1.3792,-1.3782,-1.3764,-1.3756,-1.3764,-1.374,-1.3739,-1.3746,-1.3742,-1.3746,-1.3737,-1.3742,-1.3742,-1.3742,0,-1.4005,-1.3984,-1.3957,-1.393,-1.3922,-1.3908,-1.3884,-1.3868,-1.3846,-1.3836,-1.3819,-1.3807,-1.3788,-1.3787,-1.376,-1.3766,-1.3755,-1.3745,-1.3744,-1.3741,-1.374,-1.3738,-1.3734,-1.3733,-1.3739,-1.3739,-1.3739,0,-1.401,-1.3975,-1.3954,-1.3943,-1.3911,-1.3902,-1.3888,-1.3866,-1.3853,-1.3833,-1.3824,-1.3802,-1.379,-1.3774,-1.3756,-1.3756,-1.3731,-1.3728,-1.3722,-1.3723,-1.3717,-1.3717,-1.3711,-1.3711,-1.3711,-1.3711,-1.3711,0,-1.4,-1.3983,-1.3956,-1.3943,-1.3925,-1.3905,-1.3888,-1.3873,-1.3853,-1.3838,-1.3823,-1.3809,-1.3786,-1.3769,-1.3755,-1.3736,-1.373,-1.3722,-1.3718,-1.3723,-1.3724,-1.3715,-1.3715,-1.371,-1.371,-1.371,-1.3711,0,-1.4001,-1.3982,-1.3959,-1.3931,-1.3924,-1.3911,-1.3887,-1.3875,-1.386,-1.384,-1.3834,-1.3811,-1.379,-1.3771,-1.3743,-1.3734,-1.3714,-1.371,-1.3722,-1.372,-1.3715,-1.3716,-1.3702,-1.3699,-1.3701,-1.3701,-1.3701,0,-1.3996,-1.3983,-1.3954,-1.3943,-1.393,-1.3911,-1.3898,-1.3879,-1.3865,-1.384,-1.383,-1.3809,-1.379,-1.3758,-1.3739,-1.3718,-1.3713,-1.3709,-1.3709,-1.3715,-1.3712,-1.3713,-1.3712,-1.3709,-1.3709,-1.3709,-1.3709,0,-1.3989,-1.398,-1.3962,-1.394,-1.3924,-1.3906,-1.3888,-1.3879,-1.3857,-1.3843,-1.3822,-1.3808,-1.378,-1.3759,-1.3736,-1.3722,-1.3712,-1.371,-1.3707,-1.3712,-1.3719,-1.3715,-1.3722,-1.371,-1.371,-1.371,-1.371,-1.371,-1.3987,-1.3975,-1.3953,-1.3933,-1.3917,-1.39,-1.3887,-1.3871,-1.3853,-1.3829,-1.3819,-1.3798,-1.3777,-1.3745,-1.3732,-1.3715,-1.3713,-1.3709,-1.3708,-1.3707,-1.3708,-1.3722,-1.3711,-1.3711,-1.3711,-1.3711,-1.3711,0,-1.3979,-1.3964,-1.3946,-1.392,-1.3905,-1.3897,-1.3877,-1.3864,-1.3846,-1.3827,-1.381,-1.3786,-1.3766,-1.3745,-1.3724,-1.3715,-1.371,-1.371,-1.371,-1.3707,-1.3711,-1.3716,-1.3714,-1.3714,-1.3714,-1.3714,-1.3714,-1.3714,-1.3973,-1.3952,-1.3941,-1.3913,-1.3899,-1.3877,-1.3866,-1.3851,-1.3836,-1.381,-1.3794,-1.3781,-1.3762,-1.3739,-1.3721,-1.3715,-1.3708,-1.371,-1.3703,-1.3707,-1.3707,-1.3707,-1.3711,-1.3708,-1.3708,-1.37,-1.37,-1.37]},{"header":{"parameterUnit":"m.s-1","parameterCategory":1,"la1":30.2991,"la2":30.254,"lo1":-89.0895,"lo2":-89.0444,"dy":0.0017,"dx":0.0017,"nx":28,"ny":28,"refTime":"2024-05-28T21:00:00:Z","depth":0,"parameterNumber":3,"parameterNumberName":"V-component_of_WINDS"},"data":[0,0,0,0,0,0,0,0,0,0,0,0,0,0,0,0,0,0,0,0,0,0,0,0,0,0,0,0,0,0,0,0,0,0,0,0,0,0,0,0,0,0,0,0,0,0,0,0,0,0,0,0,0,0,0,0,0,0,2.8822,2.8822,0,2.8797,2.8797,2.8797,2.8856,2.8858,2.886,2.8862,2.8834,2.8831,2.8829,0,0,0,0,0,0,0,0,0,0,0,0,0,2.8918,2.8916,2.8822,2.8822,2.8821,2.8797,2.8797,2.8797,2.8856,2.8858,2.886,2.8862,2.8834,2.8831,2.8828,0,0,0,0,0,0,0,0,0,0,0,0,0,2.8883,2.8915,2.8822,2.8848,2.885,2.8798,2.8797,2.8797,2.8855,2.8858,2.8861,2.8863,2.8835,2.8832,2.8828,2.8748,0,0,2.8817,2.8815,0,0,0,0,0,0,0,0,2.8885,2.8879,2.8844,2.8846,2.8848,2.8833,2.8821,2.878,2.8854,2.8853,2.8862,2.8865,2.8831,2.8828,2.8817,2.8747,2.8746,2.8816,2.8814,2.8812,2.8811,0,0,0,0,0,0,0,2.8887,2.8881,2.8812,2.8844,2.8846,2.886,2.8858,2.8813,2.8826,2.8853,2.8858,2.8854,2.8832,2.882,2.8817,2.8746,2.8816,2.8813,2.8811,2.8809,2.8611,2.8608,0,0,0,0,0,0,2.8887,2.8882,2.8813,2.8811,2.8874,2.8856,2.8854,2.8835,2.8827,2.8829,2.8852,2.8857,2.8825,2.8821,2.8816,2.8723,2.8812,2.8809,2.8807,2.8614,2.8611,2.8607,0,0,0,0,0,0,2.8889,2.888,2.8814,2.8848,2.8841,2.8852,2.8829,2.8833,2.8821,2.8826,2.8828,2.8837,2.8827,2.8821,2.8765,2.8723,2.8807,2.8804,2.8618,2.8613,2.8609,2.8536,0,0,0,0,0,0,2.8891,2.888,2.885,2.8847,2.8839,2.8764,2.8827,2.883,2.8814,2.8821,2.8813,2.8814,2.8829,2.8771,2.8762,2.8719,2.8801,2.8622,2.8616,2.861,2.8542,2.853,2.8519,0,0,0,0,0,2.8894,2.883,2.8848,2.884,2.8802,2.8761,2.8757,2.8776,2.8811,2.8781,2.8784,2.8814,2.8729,2.8764,2.8755,2.8711,2.8624,2.8617,2.8611,2.8548,2.8532,2.8519,0,0,0,0,0,0,2.8826,2.883,2.885,2.8783,2.8772,2.8771,2.8734,2.8759,2.8736,2.8743,2.8768,2.8766,2.8705,2.8703,2.8742,2.8634,2.8683,2.8674,2.8638,2.8623,2.8612,2.8613,2.8798,0,0,0,0,0,2.8803,2.8771,2.8776,2.8716,2.8709,2.8722,2.8706,2.8722,2.8711,2.8706,2.8705,2.8693,2.8663,2.8643,2.8616,2.8543,2.8542,2.8508,2.8496,2.8486,2.8478,2.844,2.8425,2.8585,2.8585,2.8585,0,0,2.8755,2.8754,2.8731,2.8702,2.8695,2.8661,2.8718,2.8679,2.8653,2.87,2.8647,2.8647,2.8634,2.857,2.8541,2.8565,2.8434,2.8478,2.847,2.8467,2.8432,2.8416,2.8403,2.8581,2.8581,2.8582,0,0,2.8651,2.8646,2.8597,2.8589,2.8579,2.8588,2.8576,2.8573,2.8575,2.8523,2.8557,2.8528,2.8476,2.8467,2.8455,2.8349,2.8376,2.834,2.8278,2.8241,2.8228,2.8217,2.818,2.8166,2.8332,2.8331,2.8331,0,2.8593,2.8543,2.8567,2.8527,2.8513,2.8555,2.8505,2.8496,2.8477,2.8466,2.8494,2.8432,2.8426,2.8361,2.8335,2.8324,2.8311,2.834,2.8228,2.8217,2.8207,2.8172,2.8158,2.8327,2.8328,2.8328,2.8328,0,2.8472,2.8437,2.8398,2.8381,2.8363,2.8317,2.8334,2.8313,2.8332,2.8338,2.8286,2.8281,2.8255,2.8241,2.8257,2.8178,2.8193,2.8224,2.8273,2.8187,2.8155,2.8141,2.8321,2.8322,2.8324,2.8325,0,0,2.8322,2.832,2.8305,2.8299,2.8291,2.8264,2.8221,2.8197,2.8179,2.8164,2.8129,2.8086,2.8115,2.8102,2.8118,2.8086,2.8003,2.8121,2.8121,2.8099,2.7916,2.7892,2.7876,2.8022,2.8019,2.8017,2.7917,0,2.8219,2.8146,2.8168,2.8094,2.8063,2.8104,2.8066,2.8058,2.8063,2.8037,2.8043,2.8012,2.8053,2.8046,2.8015,2.802,2.7967,2.8027,2.7988,2.7987,2.799,2.7859,2.7834,2.7739,2.7904,2.7902,2.79,0,2.8089,2.8072,2.7996,2.7995,2.7983,2.7949,2.7929,2.7904,2.7895,2.7902,2.7888,2.7912,2.787,2.792,2.7862,2.7903,2.7889,2.7889,2.7886,2.7882,2.7938,2.7852,2.7709,2.7695,2.788,2.7882,2.7883,0,2.7988,2.7945,2.7895,2.7887,2.7885,2.7861,2.7859,2.7853,2.7838,2.782,2.7811,2.7788,2.7776,2.7758,2.7775,2.781,2.7715,2.7766,2.7719,2.7718,2.7696,2.7697,2.7549,2.7687,2.7688,2.7688,2.7688,0,2.7871,2.7822,2.7849,2.7818,2.7765,2.7791,2.7738,2.7741,2.7736,2.7706,2.7739,2.771,2.7735,2.7708,2.7721,2.7672,2.7666,2.767,2.7674,2.7667,2.7666,2.7657,2.7664,2.7684,2.7685,2.7686,2.7686,0,2.7748,2.7764,2.7712,2.7715,2.7715,2.7676,2.7679,2.765,2.7659,2.762,2.7613,2.7626,2.7597,2.7613,2.7581,2.7591,2.7527,2.754,2.753,2.7533,2.7485,2.7489,2.7325,2.7305,2.7457,2.7455,2.7454,0,2.7672,2.7636,2.7636,2.7619,2.7615,2.7587,2.7572,2.7596,2.7579,2.7568,2.754,2.7514,2.7494,2.7445,2.7452,2.7429,2.7441,2.7385,2.7438,2.7432,2.744,2.7442,2.7439,2.7374,2.7373,2.7371,2.737,0,2.7535,2.7546,2.7523,2.7504,2.7485,2.7471,2.7459,2.7443,2.7468,2.7447,2.7418,2.7402,2.7372,2.7345,2.7326,2.7324,2.735,2.7354,2.7342,2.7334,2.7329,2.7331,2.7501,2.7357,2.7358,2.7359,2.736,2.7361,2.7434,2.7404,2.74,2.7375,2.7369,2.7358,2.7331,2.7338,2.7314,2.7292,2.7308,2.7274,2.7267,2.7244,2.7239,2.7212,2.7235,2.7217,2.7212,2.7207,2.7201,2.7334,2.7209,2.7209,2.721,2.721,2.721,0,2.7299,2.7299,2.7275,2.7259,2.7239,2.7268,2.7257,2.7238,2.7208,2.72,2.7181,2.7148,2.7123,2.7129,2.7106,2.7084,2.7096,2.7077,2.7079,2.7078,2.7182,2.7195,2.7068,2.7068,2.7068,2.7068,2.7068,2.7068,2.7226,2.7178,2.7189,2.7138,2.7139,2.7106,2.7098,2.7088,2.7082,2.7044,2.7024,2.7029,2.7027,2.7005,2.6983,2.6986,2.6976,2.6952,2.6959,2.7056,2.707,2.7084,2.7096,2.695,2.695,2.6857,2.6856,2.6856]}]]